Change the Weather History Date:

Thursday, March 7, 2013

  Actual Average (KFDW) Record (KFDW)
Temperature  
Mean Temperature 44 °F -  
Max Temperature 59 °F 63 °F 71 °F (2012)
Min Temperature 28 °F 38 °F 33 °F (2014)
Degree Days  
Heating Degree Days 22    
Moisture  
Dew Point 30 °F    
Average Humidity 68    
Maximum Humidity 100    
Minimum Humidity 31    
Precipitation  
Precipitation 0.00 in - - ()
Sea Level Pressure  
Sea Level Pressure 30.21 in    
Wind  
Wind Speed 4 mph (NNW)    
Max Wind Speed 12 mph    
Max Gust Speed 17 mph    
Visibility 10 miles    
Events      
Averages and records for this station are not official NWS values.
T = Trace of Precipitation, MM = Missing Value Source: NWS Daily Summary

Daily Weather History Graph

Daily Weather History Graph

Search for Another Location

Airport or City:

Trip Planner

Search our weather history database for the weather conditions in past years. The results will help you decide how hot, cold, wet, or windy it might be!

Date:

Astronomy

Mar. 07, 2013 Rise Set
Actual Time 6:47 AM EST 6:28 PM EST
Civil Twilight 6:22 AM EST 6:53 PM EST
Nautical Twilight 5:53 AM EST 7:22 PM EST
Astronomical Twilight 5:24 AM EST 7:51 PM EST
Moon 3:36 AM EST (3/7) 2:23 PM EST (3/7)
Length of Visible Light 12h 30m
Length of Day
11h 40m
Waning Crescent, 20% of the Moon is Illuminated
Mar 7
Waning Crescent
Mar 11
New
Mar 19
First Quarter
Mar 27
Full
Apr 3
Last Quarter

Hourly Weather History & Observations

Time (EST) Temp. Windchill Dew Point Humidity Pressure Visibility Wind Dir Wind Speed Gust Speed Precip Events Conditions
12:15 AM 32.0 °F 28.7 °F 28.4 °F 87% 30.16 in 10.0 mi North 3.5 mph - N/A   Clear
12:35 AM 32.0 °F 27.5 °F 28.4 °F 87% 30.16 in 10.0 mi North 4.6 mph - N/A   Clear
12:55 AM 32.0 °F 28.7 °F 28.4 °F 87% 30.17 in 10.0 mi North 3.5 mph - N/A   Clear
1:15 AM 32.0 °F 28.7 °F 28.4 °F 87% 30.17 in 10.0 mi North 3.5 mph - N/A   Clear
1:35 AM 30.2 °F - 28.4 °F 93% 30.18 in 10.0 mi Calm Calm - N/A   Clear
1:55 AM 30.2 °F 26.7 °F 28.4 °F 93% 30.17 in 10.0 mi NNE 3.5 mph - N/A   Clear
2:15 AM 30.2 °F - 28.4 °F 93% 30.18 in 10.0 mi Calm Calm - N/A   Clear
2:35 AM 30.2 °F - 28.4 °F 93% 30.17 in 10.0 mi Calm Calm - N/A   Clear
2:55 AM 30.2 °F - 28.4 °F 93% 30.18 in 10.0 mi Calm Calm - N/A   Clear
3:15 AM 30.2 °F - 28.4 °F 93% 30.17 in 10.0 mi Calm Calm - N/A   Clear
3:35 AM 28.4 °F - 28.4 °F 100% 30.18 in 10.0 mi Calm Calm - N/A   Clear
3:55 AM 28.4 °F - 28.4 °F 100% 30.19 in 10.0 mi Calm Calm - N/A   Clear
4:15 AM 28.4 °F - 28.4 °F 100% 30.19 in 10.0 mi Calm Calm - N/A   Clear
4:35 AM 28.4 °F - 28.4 °F 100% 30.19 in 10.0 mi Calm Calm - N/A   Clear
4:55 AM 28.4 °F 24.6 °F 28.4 °F 100% 30.20 in 10.0 mi North 3.5 mph - N/A   Clear
5:15 AM 28.4 °F 23.3 °F 26.6 °F 93% 30.22 in 10.0 mi NW 4.6 mph - N/A   Clear
5:35 AM 28.4 °F - 28.4 °F 100% 30.23 in 10.0 mi Calm Calm - N/A   Clear
5:55 AM 28.4 °F - 28.4 °F 100% 30.23 in 10.0 mi Calm Calm - N/A   Clear
6:15 AM 28.4 °F 24.6 °F 28.4 °F 100% 30.23 in 10.0 mi North 3.5 mph - N/A   Clear
6:35 AM 30.2 °F 26.7 °F 28.4 °F 93% 30.24 in 10.0 mi NNW 3.5 mph - N/A   Clear
7:15 AM 28.4 °F - 28.4 °F 100% 30.24 in 10.0 mi Calm Calm - N/A   Clear
7:35 AM 30.2 °F - 30.2 °F 100% 30.25 in 10.0 mi Calm Calm - N/A   Clear
7:55 AM 32.0 °F - 32.0 °F 100% 30.26 in 10.0 mi Calm Calm - N/A   Clear
8:15 AM 35.6 °F - 30.2 °F 81% 30.26 in 10.0 mi Calm Calm - N/A   Clear
8:35 AM 37.4 °F 34.9 °F 32.0 °F 81% 30.27 in 10.0 mi NNW 3.5 mph - N/A   Clear
8:55 AM 39.2 °F 35.9 °F 30.2 °F 70% 30.27 in 10.0 mi North 4.6 mph - N/A   Clear
9:15 AM 41.0 °F 38.0 °F 30.2 °F 65% 30.27 in 10.0 mi NW 4.6 mph - N/A   Clear
9:35 AM 42.8 °F 41.1 °F 30.2 °F 61% 30.27 in 10.0 mi WNW 3.5 mph - N/A   Clear
9:55 AM 42.8 °F 40.1 °F 28.4 °F 57% 30.27 in 10.0 mi NNW 4.6 mph - N/A   Clear
10:15 AM 44.6 °F - 30.2 °F 57% 30.26 in 10.0 mi Calm Calm - N/A   Clear
10:35 AM 44.6 °F - 30.2 °F 57% 30.25 in 10.0 mi Calm Calm - N/A   Clear
10:55 AM 46.4 °F - 30.2 °F 53% 30.25 in 10.0 mi Calm Calm - N/A   Clear
11:15 AM 46.4 °F 43.5 °F 30.2 °F 53% 30.25 in 10.0 mi WNW 5.8 mph - N/A   Clear
11:55 AM 48.2 °F - 30.2 °F 50% 30.24 in 10.0 mi West 9.2 mph - N/A   Clear
12:15 PM 50.0 °F - 30.2 °F 47% 30.23 in 10.0 mi West 9.2 mph - N/A   Clear
12:35 PM 50.0 °F - 28.4 °F 43% 30.22 in 10.0 mi NW 10.4 mph - N/A   Clear
12:55 PM 51.8 °F - 30.2 °F 44% 30.21 in 10.0 mi NW 9.2 mph - N/A   Clear
1:15 PM 51.8 °F - 28.4 °F 41% 30.20 in 10.0 mi WNW 6.9 mph - N/A   Clear
1:35 PM 53.6 °F - 28.4 °F 38% 30.19 in 10.0 mi NNW 9.2 mph - N/A   Clear
1:55 PM 53.6 °F - 30.2 °F 41% 30.19 in 10.0 mi WNW 10.4 mph - N/A   Clear
2:15 PM 55.4 °F - 30.2 °F 38% 30.17 in 10.0 mi West 6.9 mph - N/A   Clear
2:35 PM 55.4 °F - 30.2 °F 38% 30.17 in 10.0 mi WSW 6.9 mph - N/A   Clear
3:15 PM 59.0 °F - 30.2 °F 34% 30.17 in 10.0 mi WNW 4.6 mph - N/A   Clear
3:35 PM 59.0 °F - 30.2 °F 34% 30.16 in 10.0 mi NW 8.1 mph - N/A   Clear
3:55 PM 59.0 °F - 30.2 °F 34% 30.16 in 10.0 mi West 5.8 mph - N/A   Clear
4:15 PM 59.0 °F - 30.2 °F 34% 30.16 in 10.0 mi North 9.2 mph - N/A   Clear
4:35 PM 59.0 °F - 28.4 °F 31% 30.16 in 10.0 mi WNW 8.1 mph - N/A   Clear
4:55 PM 59.0 °F - 30.2 °F 34% 30.17 in 10.0 mi WNW 4.6 mph - N/A   Clear
5:15 PM 59.0 °F - 30.2 °F 34% 30.17 in 10.0 mi NW 3.5 mph - N/A   Clear
5:35 PM 59.0 °F - 28.4 °F 31% 30.17 in 10.0 mi NW 4.6 mph - N/A   Clear
5:55 PM 57.2 °F - 28.4 °F 33% 30.18 in 10.0 mi NNW 3.5 mph - N/A   Clear
6:15 PM 55.4 °F - 30.2 °F 38% 30.18 in 10.0 mi NNW 3.5 mph - N/A   Clear
8:35 PM 42.8 °F - 32.0 °F 66% 30.21 in 10.0 mi Calm Calm - N/A   Clear
8:55 PM 42.8 °F - 32.0 °F 66% 30.22 in 10.0 mi Calm Calm - N/A   Clear
9:15 PM 42.8 °F - 32.0 °F 66% 30.22 in 10.0 mi Calm Calm - N/A   Clear
9:35 PM 41.0 °F - 32.0 °F 70% 30.23 in 10.0 mi Calm Calm - N/A   Clear
9:55 PM 42.8 °F 37.0 °F 32.0 °F 66% 30.25 in 10.0 mi North 10.4 mph 17.3 mph N/A   Clear
10:15 PM 42.8 °F 37.0 °F 32.0 °F 66% 30.26 in 10.0 mi North 10.4 mph - N/A   Clear
10:35 PM 42.8 °F 36.6 °F 32.0 °F 66% 30.26 in 10.0 mi NNE 11.5 mph - N/A   Clear
10:55 PM 41.0 °F 34.7 °F 32.0 °F 70% 30.26 in 10.0 mi NNE 10.4 mph - N/A   Clear
11:15 PM 41.0 °F 34.3 °F 32.0 °F 70% 30.26 in 10.0 mi NNE 11.5 mph - N/A   Clear
11:35 PM 41.0 °F 35.2 °F 32.0 °F 70% 30.26 in 10.0 mi NNE 9.2 mph - N/A   Clear
11:55 PM 39.2 °F 32.0 °F 30.2 °F 70% 30.26 in 10.0 mi NNE 11.5 mph - N/A   Clear